,,Stat5,,Stat1,,Stat2,,Stat3,,Stat4,,Wind1,,Wind1,
time,status,PA1M_AVG,status,PR1M_SUM,status,RH1M_AVG,status,SR1M_AVG,status,TA1M_AVG,status,W1dAve1m,status,W1sAve1m,
2003-01-24, 00:00:00,VALID,916.829,VALID,0,VALID,99.3594,VALID,-0.0339617,VALID,20.6859,VALID,55,VALID,0.634332,
2003-01-24, 00:01:00,VALID,916.829,VALID,0,VALID,99.3683,VALID,-0.0679233,VALID,20.676,VALID,48,VALID,0.508446,
2003-01-24, 00:02:00,VALID,916.799,VALID,0,VALID,99.3772,VALID,-0.0509425,VALID,20.6927,VALID,51,VALID,0.353041,
2003-01-24, 00:03:00,VALID,916.789,VALID,0,VALID,99.3835,VALID,-0.0679233,VALID,20.6728,VALID,69,VALID,0.548611,
2003-01-24, 00:04:00,VALID,916.768,VALID,0,VALID,99.3848,VALID,-0.0169808,VALID,20.6725,VALID,79,VALID,0.516627,
2003-01-24, 00:05:00,VALID,916.75,VALID,0,VALID,99.3746,VALID,0.0339617,VALID,20.6583,VALID,79,VALID,0.418708,
2003-01-24, 00:06:00,VALID,916.743,VALID,0,VALID,99.3797,VALID,0.0679233,VALID,20.6749,VALID,79,VALID,0.396289,
2003-01-24, 00:07:00,VALID,916.736,VALID,0,VALID,99.3861,VALID,0.0339617,VALID,20.6583,VALID,79,VALID,0.327714,
2003-01-24, 00:08:00,VALID,916.729,VALID,0,VALID,99.3848,VALID,0.0339617,VALID,20.6618,VALID,79,VALID,0.36287,
2003-01-24, 00:09:00,VALID,916.724,VALID,0,VALID,99.3835,VALID,0.0679233,VALID,20.6518,VALID,79,VALID,0.354601,
2003-01-24, 00:10:00,VALID,916.711,VALID,0,VALID,99.3962,VALID,0.0169808,VALID,20.6618,VALID,79,VALID,0.312706,
2003-01-24, 00:11:00,VALID,916.69,VALID,0,VALID,99.4179,VALID,0.0679233,VALID,20.662,VALID,85,VALID,0.470536,
2003-01-24, 00:12:00,VALID,916.688,VALID,0,VALID,99.414,VALID,0.0679233,VALID,20.6747,VALID,102,VALID,0.535156,
2003-01-24, 00:13:00,VALID,916.667,VALID,0,VALID,99.4242,VALID,0,VALID,20.6941,VALID,103,VALID,0.412796,
2003-01-24, 00:14:00,VALID,916.65,VALID,0,VALID,99.4344,VALID,0.101885,VALID,20.7137,VALID,103,VALID,0.389803,
2003-01-24, 00:15:00,VALID,916.601,VALID,0,VALID,99.4293,VALID,0.0509425,VALID,20.7299,VALID,93,VALID,0.374155,
2003-01-24, 00:16:00,VALID,916.602,VALID,0,VALID,99.4382,VALID,0.0849042,VALID,20.7364,VALID,76,VALID,0.524023,
2003-01-24, 00:17:00,VALID,916.564,VALID,0,VALID,99.4344,VALID,0.101885,VALID,20.7423,VALID,75,VALID,0.527644,
2003-01-24, 00:18:00,VALID,916.531,VALID,0,VALID,99.4217,VALID,0.0849042,VALID,20.7329,VALID,76,VALID,0.403716,
2003-01-24, 00:19:00,VALID,916.513,VALID,0,VALID,99.4293,VALID,-0.0339617,VALID,20.7242,VALID,77,VALID,0.34924,
2003-01-24, 00:20:00,VALID,916.468,VALID,0,VALID,99.4191,VALID,-0.0339617,VALID,20.7053,VALID,82,VALID,0.426731,
2003-01-24, 00:21:00,VALID,916.429,VALID,0,VALID,99.414,VALID,-0.0339617,VALID,20.7091,VALID,83,VALID,0.452679,
2003-01-24, 00:22:00,VALID,916.403,VALID,0,VALID,99.4102,VALID,-0.0339617,VALID,20.6792,VALID,72,VALID,0.632813,
2003-01-24, 00:23:00,VALID,916.384,VALID,0,VALID,99.4039,VALID,-0.0509425,VALID,20.67,VALID,56,VALID,0.585304,
2003-01-24, 00:24:00,VALID,916.385,VALID,0,VALID,99.4001,VALID,-0.0849042,VALID,20.6283,VALID,55,VALID,0.574424,
2003-01-24, 00:25:00,VALID,916.379,VALID,0,VALID,99.3759,VALID,0,VALID,20.5952,VALID,55,VALID,0.585938,
2003-01-24, 00:26:00,VALID,916.386,VALID,0,VALID,99.3606,VALID,-0.0169808,VALID,20.5502,VALID,55,VALID,0.475419,
2003-01-24, 00:27:00,VALID,916.385,VALID,0,VALID,99.3339,VALID,-0.0509425,VALID,20.5049,VALID,55,VALID,0.379112,
2003-01-24, 00:28:00,VALID,916.401,VALID,0,VALID,99.306,VALID,-0.0509425,VALID,20.4602,VALID,55,VALID,0.262336,
2003-01-24, 00:29:00,VALID,916.408,VALID,0,VALID,99.2462,VALID,-0.0339617,VALID,20.3597,VALID,52,VALID,0.330804,
2003-01-24, 00:30:00,VALID,916.413,VALID,0,VALID,99.2004,VALID,-0.0169808,VALID,20.2951,VALID,48,VALID,0.335321,
2003-01-24, 00:31:00,VALID,916.396,VALID,0,VALID,99.203,VALID,-0.0509425,VALID,20.2496,VALID,48,VALID,0.298214,
2003-01-24, 00:32:00,VALID,916.388,VALID,0,VALID,99.2157,VALID,-0.0849042,VALID,20.2372,VALID,48,VALID,0.22923,
2003-01-24, 00:33:00,VALID,916.367,VALID,0,VALID,99.2208,VALID,-0.0849042,VALID,20.1917,VALID,47,VALID,0.322316,
2003-01-24, 00:34:00,VALID,916.354,VALID,0,VALID,99.2068,VALID,-0.0169808,VALID,20.1688,VALID,46,VALID,0.34889,
2003-01-24, 00:35:00,VALID,916.344,VALID,0,VALID,99.2449,VALID,0,VALID,20.1586,VALID,46,VALID,0.498766,
2003-01-24, 00:36:00,VALID,916.324,VALID,0,VALID,99.3009,VALID,-0.0169808,VALID,20.2046,VALID,46,VALID,0.457422,
2003-01-24, 00:37:00,VALID,916.318,VALID,0,VALID,99.3441,VALID,0,VALID,20.2367,VALID,46,VALID,0.319285,
2003-01-24, 00:38:00,VALID,916.299,VALID,0,VALID,99.3632,VALID,0,VALID,20.2593,VALID,46,VALID,0.379645,
2003-01-24, 00:39:00,VALID,916.303,VALID,0,VALID,99.3873,VALID,0,VALID,20.2755,VALID,46,VALID,0.577492,
2003-01-24, 00:40:00,VALID,916.306,VALID,0,VALID,99.3962,VALID,0,VALID,20.2886,VALID,46,VALID,0.645399,
2003-01-24, 00:41:00,VALID,916.306,VALID,0,VALID,99.4013,VALID,0,VALID,20.2948,VALID,46,VALID,0.672321,
2003-01-24, 00:42:00,VALID,916.334,VALID,0,VALID,99.4013,VALID,-0.0509425,VALID,20.3145,VALID,40,VALID,0.758003,
2003-01-24, 00:43:00,VALID,916.321,VALID,0,VALID,99.4128,VALID,-0.0339617,VALID,20.3309,VALID,37,VALID,0.67462,
2003-01-24, 00:44:00,VALID,916.313,VALID,0,VALID,99.409,VALID,-0.0339617,VALID,20.318,VALID,37,VALID,0.472451,
2003-01-24, 00:45:00,VALID,916.307,VALID,0,VALID,99.4051,VALID,0,VALID,20.3277,VALID,37,VALID,0.359797,
2003-01-24, 00:46:00,VALID,916.305,VALID,0,VALID,99.4051,VALID,0,VALID,20.3048,VALID,37,VALID,0.251367,
2003-01-24, 00:47:00,VALID,916.305,VALID,0,VALID,99.4102,VALID,-0.0169808,VALID,20.3043,VALID,37,VALID,0.273438,
2003-01-24, 00:48:00,VALID,916.294,VALID,0,VALID,99.4166,VALID,0,VALID,20.3237,VALID,29,VALID,0.314611,
2003-01-24, 00:49:00,VALID,916.281,VALID,0,VALID,99.4331,VALID,0,VALID,20.3431,VALID,27,VALID,0.410684,
2003-01-24, 00:50:00,VALID,916.3,VALID,0,VALID,99.4382,VALID,0,VALID,20.3466,VALID,21,VALID,0.379223,
2003-01-24, 00:51:00,VALID,916.307,VALID,0,VALID,99.4458,VALID,0,VALID,20.3625,VALID,8,VALID,0.356027,
2003-01-24, 00:52:00,VALID,916.325,VALID,0,VALID,99.4471,VALID,0,VALID,20.3956,VALID,1,VALID,0.569679,
2003-01-24, 00:53:00,VALID,916.334,VALID,0,VALID,99.456,VALID,0,VALID,20.3953,VALID,1,VALID,0.606208,
2003-01-24, 00:54:00,VALID,916.344,VALID,0,VALID,99.4458,VALID,0,VALID,20.3719,VALID,1,VALID,0.422492,
2003-01-24, 00:55:00,VALID,916.335,VALID,0,VALID,99.4446,VALID,-0.0339617,VALID,20.3692,VALID,1,VALID,0.130962,
2003-01-24, 00:56:00,VALID,916.323,VALID,0,VALID,99.4573,VALID,0,VALID,20.3856,VALID,1,VALID,0,
2003-01-24, 00:57:00,VALID,916.319,VALID,0,VALID,99.4535,VALID,0,VALID,20.3821,VALID,1,VALID,0,
2003-01-24, 00:58:00,VALID,916.314,VALID,0,VALID,99.4585,VALID,0,VALID,20.3988,VALID,1,VALID,0,
2003-01-24, 00:59:00,VALID,916.307,VALID,0,VALID,99.4547,VALID,0,VALID,20.4018,VALID,1,VALID,0,
2003-01-24, 01:00:00,VALID,916.3,VALID,0,VALID,99.4535,VALID,0.0169808,VALID,20.4077,VALID,1,VALID,0,
2003-01-24, 01:01:00,VALID,916.285,VALID,0,VALID,99.4662,VALID,0,VALID,20.4144,VALID,1,VALID,0.0587054,
2003-01-24, 01:02:00,VALID,916.282,VALID,0,VALID,99.4649,VALID,-0.0169808,VALID,20.4177,VALID,1,VALID,0.0405869,
2003-01-24, 01:03:00,VALID,916.268,VALID,0,VALID,99.4547,VALID,0.0169808,VALID,20.4147,VALID,1,VALID,0,
2003-01-24, 01:04:00,VALID,916.284,VALID,0,VALID,99.4585,VALID,-0.0169808,VALID,20.4047,VALID,1,VALID,0.0602385,
2003-01-24, 01:05:00,VALID,916.287,VALID,0,VALID,99.4611,VALID,0,VALID,20.4139,VALID,1,VALID,0.230469,
2003-01-24, 01:06:00,VALID,916.274,VALID,0,VALID,99.4624,VALID,0,VALID,20.4144,VALID,1,VALID,0.270898,
2003-01-24, 01:07:00,VALID,916.26,VALID,0,VALID,99.4675,VALID,0,VALID,20.4244,VALID,1,VALID,0.0448191,
2003-01-24, 01:08:00,VALID,916.251,VALID,0,VALID,99.47,VALID,-0.0339617,VALID,20.4246,VALID,1,VALID,0,
2003-01-24, 01:09:00,VALID,916.241,VALID,0,VALID,99.4662,VALID,0,VALID,20.4368,VALID,1,VALID,0,
2003-01-24, 01:10:00,VALID,916.227,VALID,0,VALID,99.4751,VALID,0,VALID,20.4438,VALID,1,VALID,0,
2003-01-24, 01:11:00,VALID,916.215,VALID,0,VALID,99.4675,VALID,-0.0339617,VALID,20.4212,VALID,1,VALID,0,
2003-01-24, 01:12:00,VALID,916.197,VALID,0,VALID,99.4357,VALID,0.0169808,VALID,20.3921,VALID,1,VALID,0,
2003-01-24, 01:13:00,VALID,916.193,VALID,0,VALID,99.4179,VALID,0,VALID,20.3404,VALID,1,VALID,0.0221706,
2003-01-24, 01:14:00,VALID,916.182,VALID,0,VALID,99.4115,VALID,0,VALID,20.2914,VALID,1,VALID,0.0764803,
2003-01-24, 01:15:00,VALID,916.175,VALID,0,VALID,99.409,VALID,0,VALID,20.273,VALID,2,VALID,0.151816,
2003-01-24, 01:16:00,VALID,916.157,VALID,0,VALID,99.414,VALID,-0.0169808,VALID,20.2528,VALID,3,VALID,0.00195313,
2003-01-24, 01:17:00,VALID,916.157,VALID,0,VALID,99.4179,VALID,-0.0339617,VALID,20.2474,VALID,17,VALID,0.0326522,
2003-01-24, 01:18:00,VALID,916.154,VALID,0,VALID,99.4153,VALID,-0.0169808,VALID,20.224,VALID,70,VALID,0.111698,
2003-01-24, 01:19:00,VALID,916.149,VALID,0,VALID,99.4242,VALID,-0.0169808,VALID,20.2178,VALID,70,VALID,0,
2003-01-24, 01:20:00,VALID,916.151,VALID,0,VALID,99.4293,VALID,0,VALID,20.2081,VALID,70,VALID,0,
2003-01-24, 01:21:00,VALID,916.15,VALID,0,VALID,99.4242,VALID,-0.0169808,VALID,20.1785,VALID,70,VALID,0,
2003-01-24, 01:22:00,VALID,916.151,VALID,0,VALID,99.4293,VALID,0,VALID,20.1564,VALID,70,VALID,0,
2003-01-24, 01:23:00,VALID,916.152,VALID,0,VALID,99.4153,VALID,-0.0169808,VALID,20.1529,VALID,70,VALID,0,
2003-01-24, 01:24:00,VALID,916.16,VALID,0,VALID,99.4102,VALID,-0.0169808,VALID,20.1372,VALID,70,VALID,0.0178865,
2003-01-24, 01:25:00,VALID,916.174,VALID,0,VALID,99.4001,VALID,0,VALID,20.1106,VALID,70,VALID,0.24116,
2003-01-24, 01:26:00,VALID,916.173,VALID,0,VALID,99.4064,VALID,0,VALID,20.1111,VALID,95,VALID,0.32641,
2003-01-24, 01:27:00,VALID,916.182,VALID,0,VALID,99.428,VALID,0,VALID,20.1173,VALID,107,VALID,0.134663,
2003-01-24, 01:28:00,VALID,916.188,VALID,0,VALID,99.4446,VALID,0,VALID,20.134,VALID,107,VALID,0.0762747,
2003-01-24, 01:29:00,VALID,916.195,VALID,0,VALID,99.4585,VALID,0,VALID,20.1497,VALID,107,VALID,0.00669643,
2003-01-24, 01:30:00,VALID,916.175,VALID,0,VALID,99.4738,VALID,-0.0339617,VALID,20.1827,VALID,107,VALID,0,
2003-01-24, 01:31:00,VALID,916.169,VALID,0,VALID,99.4789,VALID,0,VALID,20.2051,VALID,107,VALID,0,
2003-01-24, 01:32:00,VALID,916.148,VALID,0,VALID,99.4814,VALID,-0.0169808,VALID,20.2113,VALID,107,VALID,0,
2003-01-24, 01:33:00,VALID,916.144,VALID,0,VALID,99.4865,VALID,-0.0339617,VALID,20.218,VALID,107,VALID,0,
2003-01-24, 01:34:00,VALID,916.144,VALID,0,VALID,99.484,VALID,-0.0169808,VALID,20.2113,VALID,107,VALID,0,
2003-01-24, 01:35:00,VALID,916.144,VALID,0,VALID,99.4713,VALID,-0.0339617,VALID,20.1825,VALID,107,VALID,0,
2003-01-24, 01:36:00,VALID,916.137,VALID,0,VALID,99.4573,VALID,-0.0169808,VALID,20.1798,VALID,107,VALID,0,
2003-01-24, 01:37:00,VALID,916.128,VALID,0,VALID,99.4636,VALID,0,VALID,20.1793,VALID,107,VALID,0,
2003-01-24, 01:38:00,VALID,916.113,VALID,0,VALID,99.4675,VALID,0,VALID,20.176,VALID,107,VALID,0,
2003-01-24, 01:39:00,VALID,916.122,VALID,0,VALID,99.4585,VALID,0,VALID,20.1857,VALID,107,VALID,0,
2003-01-24, 01:40:00,VALID,916.121,VALID,0,VALID,99.4636,VALID,0.0169808,VALID,20.1981,VALID,107,VALID,0,
2003-01-24, 01:41:00,VALID,916.121,VALID,0,VALID,99.47,VALID,0,VALID,20.2143,VALID,107,VALID,0,
2003-01-24, 01:42:00,VALID,916.119,VALID,0,VALID,99.4611,VALID,0,VALID,20.2111,VALID,107,VALID,0,
2003-01-24, 01:43:00,VALID,916.093,VALID,0,VALID,99.4331,VALID,-0.0169808,VALID,20.1435,VALID,105,VALID,0.0711571,
2003-01-24, 01:44:00,VALID,916.083,VALID,0,VALID,99.4039,VALID,-0.0169808,VALID,20.1149,VALID,91,VALID,0.329359,
2003-01-24, 01:45:00,VALID,916.073,VALID,0,VALID,99.3772,VALID,0,VALID,20.1019,VALID,90,VALID,0.408361,
2003-01-24, 01:46:00,VALID,916.046,VALID,0,VALID,99.3848,VALID,0,VALID,20.082,VALID,90,VALID,0.434375,
2003-01-24, 01:47:00,VALID,916.032,VALID,0,VALID,99.3962,VALID,-0.0509425,VALID,20.0982,VALID,90,VALID,0.328325,
2003-01-24, 01:48:00,VALID,916.022,VALID,0,VALID,99.4153,VALID,-0.0339617,VALID,20.1082,VALID,90,VALID,0.236909,
2003-01-24, 01:49:00,VALID,916.014,VALID,0,VALID,99.4128,VALID,-0.0339617,VALID,20.1308,VALID,90,VALID,0.00982143,
2003-01-24, 01:50:00,VALID,915.994,VALID,0,VALID,99.4268,VALID,-0.0509425,VALID,20.1502,VALID,90,VALID,0.0977618,
2003-01-24, 01:51:00,VALID,915.986,VALID,0,VALID,99.4268,VALID,-0.0339617,VALID,20.1596,VALID,90,VALID,0.186384,
2003-01-24, 01:52:00,VALID,915.958,VALID,0,VALID,99.4458,VALID,-0.0169808,VALID,20.173,VALID,93,VALID,0.186867,
2003-01-24, 01:53:00,VALID,915.931,VALID,0,VALID,99.4446,VALID,0,VALID,20.189,VALID,116,VALID,0.387669,
2003-01-24, 01:54:00,VALID,915.898,VALID,0,VALID,99.4509,VALID,-0.0339617,VALID,20.2019,VALID,124,VALID,0.388775,
2003-01-24, 01:55:00,VALID,915.883,VALID,0,VALID,99.4471,VALID,-0.0169808,VALID,20.2175,VALID,128,VALID,0.285567,
2003-01-24, 01:56:00,VALID,915.879,VALID,0,VALID,99.4509,VALID,0,VALID,20.2377,VALID,128,VALID,0.393674,
2003-01-24, 01:57:00,VALID,915.878,VALID,0,VALID,99.4408,VALID,0,VALID,20.2504,VALID,128,VALID,0.227385,
2003-01-24, 01:58:00,VALID,915.876,VALID,0,VALID,99.4433,VALID,-0.0339617,VALID,20.2504,VALID,128,VALID,0.107525,
2003-01-24, 01:59:00,VALID,915.882,VALID,0,VALID,99.4496,VALID,-0.0509425,VALID,20.2539,VALID,128,VALID,0.0216518,
2003-01-24, 02:00:00,VALID,915.897,VALID,0,VALID,99.442,VALID,0,VALID,20.2474,VALID,128,VALID,0,
2003-01-24, 02:01:00,VALID,915.896,VALID,0,VALID,99.4458,VALID,0,VALID,20.2727,VALID,128,VALID,0,
2003-01-24, 02:02:00,VALID,915.896,VALID,0,VALID,99.4357,VALID,-0.0509425,VALID,20.273,VALID,128,VALID,0,
2003-01-24, 02:03:00,VALID,915.878,VALID,0,VALID,99.4471,VALID,-0.0509425,VALID,20.2698,VALID,120,VALID,0.28125,
2003-01-24, 02:04:00,VALID,915.849,VALID,0,VALID,99.4369,VALID,-0.0509425,VALID,20.2695,VALID,104,VALID,0.0867599,
2003-01-24, 02:05:00,VALID,915.839,VALID,0,VALID,99.4217,VALID,0.0679233,VALID,20.2265,VALID,95,VALID,0.253289,
2003-01-24, 02:06:00,VALID,915.829,VALID,0,VALID,99.409,VALID,0.0169808,VALID,20.1845,VALID,90,VALID,0.246484,
2003-01-24, 02:07:00,VALID,915.824,VALID,0,VALID,99.4013,VALID,0.0679233,VALID,20.1422,VALID,90,VALID,0.195929,
2003-01-24, 02:08:00,VALID,915.83,VALID,0,VALID,99.4039,VALID,0.0849042,VALID,20.1486,VALID,89,VALID,0.26837,
2003-01-24, 02:09:00,VALID,915.808,VALID,0,VALID,99.414,VALID,0.0679233,VALID,20.1583,VALID,85,VALID,0.418919,
2003-01-24, 02:10:00,VALID,915.795,VALID,0,VALID,99.4217,VALID,0.0679233,VALID,20.1583,VALID,80,VALID,0.354818,
2003-01-24, 02:11:00,VALID,915.773,VALID,0,VALID,99.4204,VALID,0.101885,VALID,20.1554,VALID,80,VALID,0.44933,
2003-01-24, 02:12:00,VALID,915.731,VALID,0,VALID,99.4102,VALID,0.0849042,VALID,20.1387,VALID,80,VALID,0.530869,
2003-01-24, 02:13:00,VALID,915.689,VALID,0,VALID,99.4115,VALID,0.0509425,VALID,20.1489,VALID,85,VALID,0.581081,
2003-01-24, 02:14:00,VALID,915.657,VALID,0,VALID,99.4115,VALID,0.0509425,VALID,20.1424,VALID,98,VALID,0.30037,
2003-01-24, 02:15:00,VALID,915.612,VALID,0,VALID,99.4242,VALID,0.0509425,VALID,20.1486,VALID,136,VALID,0.516892,
2003-01-24, 02:16:00,VALID,915.576,VALID,0,VALID,99.4433,VALID,0.0509425,VALID,20.168,VALID,136,VALID,0.49375,
2003-01-24, 02:17:00,VALID,915.56,VALID,0,VALID,99.4471,VALID,0.0509425,VALID,20.1947,VALID,141,VALID,0.522035,
2003-01-24, 02:18:00,VALID,915.531,VALID,0,VALID,99.47,VALID,0.0679233,VALID,20.2071,VALID,144,VALID,0.492188,
2003-01-24, 02:19:00,VALID,915.534,VALID,0,VALID,99.4738,VALID,0.0509425,VALID,20.2369,VALID,135,VALID,0.226985,
2003-01-24, 02:20:00,VALID,915.527,VALID,0,VALID,99.4764,VALID,0.0339617,VALID,20.2655,VALID,154,VALID,0.342061,
2003-01-24, 02:21:00,VALID,915.5,VALID,0,VALID,99.4967,VALID,0.0849042,VALID,20.2744,VALID,140,VALID,0.333482,
2003-01-24, 02:22:00,VALID,915.495,VALID,0,VALID,99.5005,VALID,0.0509425,VALID,20.2908,VALID,147,VALID,0.433699,
2003-01-24, 02:23:00,VALID,915.483,VALID,0,VALID,99.5094,VALID,0.0849042,VALID,20.3102,VALID,148,VALID,0.347128,
2003-01-24, 02:24:00,VALID,915.476,VALID,0,VALID,99.4992,VALID,0.0849042,VALID,20.3199,VALID,148,VALID,0.322574,
2003-01-24, 02:25:00,VALID,915.488,VALID,0,VALID,99.4967,VALID,0.0509425,VALID,20.3463,VALID,149,VALID,0.253289,
2003-01-24, 02:26:00,VALID,915.505,VALID,0,VALID,99.5005,VALID,0.0849042,VALID,20.3423,VALID,141,VALID,0.191311,
2003-01-24, 02:27:00,VALID,915.521,VALID,0,VALID,99.498,VALID,0.0679233,VALID,20.3525,VALID,133,VALID,0.255962,
2003-01-24, 02:28:00,VALID,915.542,VALID,0,VALID,99.5069,VALID,0.101885,VALID,20.3614,VALID,131,VALID,0.241776,
2003-01-24, 02:29:00,VALID,915.565,VALID,0,VALID,99.5018,VALID,0.0849042,VALID,20.3649,VALID,131,VALID,0.227902,
2003-01-24, 02:30:00,VALID,915.579,VALID,0,VALID,99.4967,VALID,0.0509425,VALID,20.3654,VALID,114,VALID,0.33676,
2003-01-24, 02:31:00,VALID,915.602,VALID,0,VALID,99.5018,VALID,0.0509425,VALID,20.3654,VALID,112,VALID,0.0611607,
2003-01-24, 02:32:00,VALID,915.63,VALID,0,VALID,99.5005,VALID,0.0849042,VALID,20.3744,VALID,112,VALID,0.107088,
2003-01-24, 02:33:00,VALID,915.628,VALID,0,VALID,99.5005,VALID,0.0509425,VALID,20.3749,VALID,112,VALID,0.0120192,
2003-01-24, 02:34:00,VALID,915.638,VALID,0,VALID,99.5056,VALID,0.0169808,VALID,20.395,VALID,59,VALID,0.262541,
2003-01-24, 02:35:00,VALID,915.618,VALID,0,VALID,99.5132,VALID,-0.0339617,VALID,20.4214,VALID,31,VALID,0.421464,
2003-01-24, 02:36:00,VALID,915.618,VALID,0,VALID,99.5081,VALID,-0.0169808,VALID,20.4085,VALID,25,VALID,0.585156,
2003-01-24, 02:37:00,VALID,915.604,VALID,0,VALID,99.5005,VALID,-0.0339617,VALID,20.3826,VALID,18,VALID,0.761513,
2003-01-24, 02:38:00,VALID,915.595,VALID,0,VALID,99.4992,VALID,-0.0169808,VALID,20.3436,VALID,20,VALID,0.689189,
2003-01-24, 02:39:00,VALID,915.571,VALID,0,VALID,99.4865,VALID,-0.0339617,VALID,20.3309,VALID,19,VALID,0.564823,
2003-01-24, 02:40:00,VALID,915.589,VALID,0,VALID,99.4954,VALID,0,VALID,20.3075,VALID,14,VALID,0.333767,
2003-01-24, 02:41:00,VALID,915.594,VALID,0,VALID,99.4891,VALID,0,VALID,20.2981,VALID,14,VALID,0.218304,
2003-01-24, 02:42:00,VALID,915.607,VALID,0,VALID,99.4725,VALID,0,VALID,20.2886,VALID,15,VALID,0.221227,
2003-01-24, 02:43:00,VALID,915.631,VALID,0,VALID,99.4853,VALID,-0.0169808,VALID,20.2919,VALID,24,VALID,0.364443,
2003-01-24, 02:44:00,VALID,915.637,VALID,0,VALID,99.484,VALID,-0.0169808,VALID,20.2752,VALID,27,VALID,0.317845,
2003-01-24, 02:45:00,VALID,915.645,VALID,0,VALID,99.4827,VALID,0,VALID,20.2755,VALID,30,VALID,0.356419,
2003-01-24, 02:46:00,VALID,915.637,VALID,0,VALID,99.4903,VALID,0,VALID,20.2921,VALID,47,VALID,0.493555,
2003-01-24, 02:47:00,VALID,915.636,VALID,0,VALID,99.484,VALID,-0.0339617,VALID,20.2755,VALID,52,VALID,0.433093,
2003-01-24, 02:48:00,VALID,915.63,VALID,0,VALID,99.4929,VALID,-0.0169808,VALID,20.276,VALID,47,VALID,0.479941,
2003-01-24, 02:49:00,VALID,915.628,VALID,0,VALID,99.4687,VALID,0,VALID,20.2499,VALID,47,VALID,0.442356,
2003-01-24, 02:50:00,VALID,915.63,VALID,0,VALID,99.4789,VALID,0,VALID,20.2566,VALID,47,VALID,0.103041,
2003-01-24, 02:51:00,VALID,915.627,VALID,0,VALID,99.4827,VALID,-0.0339617,VALID,20.2755,VALID,47,VALID,0.0841518,
2003-01-24, 02:52:00,VALID,915.646,VALID,0,VALID,99.4967,VALID,0,VALID,20.2817,VALID,47,VALID,0,
2003-01-24, 02:53:00,VALID,915.649,VALID,0,VALID,99.4916,VALID,0,VALID,20.3078,VALID,47,VALID,0,
2003-01-24, 02:54:00,VALID,915.655,VALID,0,VALID,99.4992,VALID,0,VALID,20.3172,VALID,47,VALID,0,
2003-01-24, 02:55:00,VALID,915.641,VALID,0,VALID,99.5031,VALID,0,VALID,20.3142,VALID,47,VALID,0,
2003-01-24, 02:56:00,VALID,915.637,VALID,0,VALID,99.4865,VALID,0,VALID,20.3177,VALID,56,VALID,0.0823171,
2003-01-24, 02:57:00,VALID,915.634,VALID,0,VALID,99.484,VALID,0,VALID,20.3013,VALID,79,VALID,0.41139,
2003-01-24, 02:58:00,VALID,915.622,VALID,0,VALID,99.4802,VALID,-0.0169808,VALID,20.3048,VALID,88,VALID,0.402549,
2003-01-24, 02:59:00,VALID,915.632,VALID,0,VALID,99.4891,VALID,-0.0169808,VALID,20.3247,VALID,94,VALID,0.178125,
2003-01-24, 03:00:00,VALID,915.633,VALID,0,VALID,99.5018,VALID,-0.0169808,VALID,20.3341,VALID,104,VALID,0.177426,
2003-01-24, 03:01:00,VALID,915.621,VALID,0,VALID,99.5005,VALID,0,VALID,20.3334,VALID,104,VALID,0.218304,
2003-01-24, 03:02:00,VALID,915.608,VALID,0,VALID,99.5056,VALID,0,VALID,20.3441,VALID,104,VALID,0.0844131,
2003-01-24, 03:03:00,VALID,915.597,VALID,0,VALID,99.5031,VALID,0,VALID,20.3369,VALID,104,VALID,0,
2003-01-24, 03:04:00,VALID,915.551,VALID,0,VALID,99.4954,VALID,0,VALID,20.3433,VALID,102,VALID,0.129729,
2003-01-24, 03:05:00,VALID,915.539,VALID,0,VALID,99.4827,VALID,0,VALID,20.3431,VALID,84,VALID,0.488076,
2003-01-24, 03:06:00,VALID,915.516,VALID,0,VALID,99.4903,VALID,0,VALID,20.3503,VALID,73,VALID,0.625977,
2003-01-24, 03:07:00,VALID,915.491,VALID,0,VALID,99.4916,VALID,0,VALID,20.3498,VALID,66,VALID,0.715255,
2003-01-24, 03:08:00,VALID,915.48,VALID,0,VALID,99.498,VALID,0,VALID,20.3662,VALID,65,VALID,0.596706,
2003-01-24, 03:09:00,VALID,915.468,VALID,0,VALID,99.4903,VALID,0.0169808,VALID,20.366,VALID,63,VALID,0.365498,
2003-01-24, 03:10:00,VALID,915.462,VALID,0,VALID,99.4776,VALID,0,VALID,20.35,VALID,64,VALID,0.47526,
2003-01-24, 03:11:00,VALID,915.461,VALID,0,VALID,99.4776,VALID,0,VALID,20.3398,VALID,66,VALID,0.324107,
2003-01-24, 03:12:00,VALID,915.465,VALID,0,VALID,99.4725,VALID,0,VALID,20.3336,VALID,75,VALID,0.451982,
2003-01-24, 03:13:00,VALID,915.449,VALID,0,VALID,99.4649,VALID,0,VALID,20.321,VALID,79,VALID,0.410262,
2003-01-24, 03:14:00,VALID,915.434,VALID,0,VALID,99.456,VALID,0,VALID,20.3011,VALID,71,VALID,0.620683,
2003-01-24, 03:15:00,VALID,915.426,VALID,0,VALID,99.456,VALID,0,VALID,20.2948,VALID,77,VALID,0.676309,
2003-01-24, 03:16:00,VALID,915.428,VALID,0,VALID,99.4547,VALID,-0.0169808,VALID,20.2824,VALID,74,VALID,0.930469,
2003-01-24, 03:17:00,VALID,915.412,VALID,0,VALID,99.4535,VALID,0,VALID,20.2593,VALID,61,VALID,0.818309,
2003-01-24, 03:18:00,VALID,915.396,VALID,0,VALID,99.4585,VALID,-0.0169808,VALID,20.2526,VALID,60,VALID,0.772382,
2003-01-24, 03:19:00,VALID,915.387,VALID,0,VALID,99.4624,VALID,0.0679233,VALID,20.2453,VALID,63,VALID,1.16237,
2003-01-24, 03:20:00,VALID,915.381,VALID,0,VALID,99.4636,VALID,0.0849042,VALID,20.2516,VALID,62,VALID,0.83087,
2003-01-24, 03:21:00,VALID,915.393,VALID,0,VALID,99.47,VALID,0.0849042,VALID,20.2451,VALID,69,VALID,1.07143,
2003-01-24, 03:22:00,VALID,915.398,VALID,0,VALID,99.4713,VALID,0.101885,VALID,20.2456,VALID,61,VALID,0.742399,
2003-01-24, 03:23:00,VALID,915.39,VALID,0,VALID,99.4865,VALID,0.101885,VALID,20.2419,VALID,64,VALID,0.642736,
2003-01-24, 03:24:00,VALID,915.385,VALID,0,VALID,99.4802,VALID,0.118866,VALID,20.219,VALID,70,VALID,0.643092,
2003-01-24, 03:25:00,VALID,915.374,VALID,0,VALID,99.484,VALID,0.0849042,VALID,20.226,VALID,70,VALID,0.485403,
2003-01-24, 03:26:00,VALID,915.352,VALID,0,VALID,99.498,VALID,0.101885,VALID,20.2187,VALID,67,VALID,0.514291,
2003-01-24, 03:27:00,VALID,915.323,VALID,0,VALID,99.4992,VALID,0.101885,VALID,20.219,VALID,68,VALID,0.437911,
2003-01-24, 03:28:00,VALID,915.293,VALID,0,VALID,99.4942,VALID,0.118866,VALID,20.209,VALID,76,VALID,0.390214,
2003-01-24, 03:29:00,VALID,915.281,VALID,0,VALID,99.5031,VALID,0.101885,VALID,20.226,VALID,84,VALID,0.476563,
2003-01-24, 03:30:00,VALID,915.267,VALID,0,VALID,99.5005,VALID,0.118866,VALID,20.209,VALID,86,VALID,0.507607,
2003-01-24, 03:31:00,VALID,915.284,VALID,0,VALID,99.5043,VALID,0.101885,VALID,20.2031,VALID,80,VALID,0.641518,
2003-01-24, 03:32:00,VALID,915.279,VALID,0,VALID,99.5132,VALID,0.0849042,VALID,20.2033,VALID,66,VALID,0.366425,
2003-01-24, 03:33:00,VALID,915.32,VALID,0,VALID,99.5094,VALID,0.0679233,VALID,20.1929,VALID,84,VALID,0.595553,
2003-01-24, 03:34:00,VALID,915.315,VALID,0,VALID,99.5081,VALID,0.0169808,VALID,20.168,VALID,74,VALID,0.688528,
2003-01-24, 03:35:00,VALID,915.317,VALID,0,VALID,99.5031,VALID,0,VALID,20.1758,VALID,90,VALID,0.923725,
2003-01-24, 03:36:00,VALID,915.322,VALID,0,VALID,99.5145,VALID,0,VALID,20.1628,VALID,81,VALID,0.784766,
2003-01-24, 03:37:00,VALID,915.319,VALID,0,VALID,99.517,VALID,-0.0339617,VALID,20.1559,VALID,89,VALID,0.363898,